Home > Time Zones > World Clock > Weather > Japan > Tsu > Past weeks

Flag for Japan Weather past 2 weeks in Tsu, Japan

Now
56 °F

Cool.


Feels Like: 56 °F
Forecast: 46 / 64 °F
Wind: 2 mph from Northeast

Location: Tsu


UV Index: 5 (Moderate)

Visibility: N/A


Pressure: 30.01 "Hg

Humidity: 93%

Dew point: 54 °F

Location of TsuLocation

Historic Weather in Tsu

°F

Tsu temperature yesterday

Maximum temperature yesterday: 53 °F (at 5:00 PM)
Minimum temperature yesterday: 49 °F (at 2:00 AM)
Average temperature yesterday: 52 °F

Past Weeks' High & Low Weather Summary

 TemperatureHumidityPressure
High75 °F (Apr 17, 11:00 AM)96% (Apr 21, 5:00 AM)30.21 "Hg (Apr 21, 5:00 AM)
Low41 °F (Apr 7, 5:00 AM)10% (Apr 15, 3:00 PM)29.86 "Hg (Apr 10, 2:00 PM)
Average58 °F49%30.02 "Hg
* Reported Apr 6 11:00 AM — Apr 21 11:00 AM, Tsu, Weather by CustomWeather, © 2014

Note: Actual official high and low records may vary slightly from our data, if they occured in-between our weather recording intervals... More about our weather records

Advertising

Historic Weather Conditions — Data for Previous 24 hours

 ConditionsComfort  
Time TempWeatherWind HumidityBarometerVisibility
11:00 AM
Apr 21
56 °FCool.2 mph93%30.01 "HgN/A
10:00 AM55 °FCool.5 mph93%30.02 "HgN/A
9:00 AM54 °FLight rain. Overcast.3 mph93%30.04 "Hg2 mi
8:00 AM53 °FCool.3 mph95%30.05 "HgN/A
7:00 AM53 °FCool.5 mph95%30.07 "HgN/A
6:00 AM53 °FCool.3 mph95%30.07 "HgN/A
5:00 AM53 °FCool.3 mph96%30.07 "HgN/A
4:00 AM52 °FCool.2 mph95%30.08 "HgN/A
3:00 AM52 °FCool.2 mph95%30.09 "HgN/A
2:00 AM52 °FCool.5 mph95%30.10 "HgN/A
1:00 AM53 °FCool.2 mph94%30.11 "HgN/A
12:00 AM53 °FCool.6 mph94%30.13 "HgN/A
11:00 PM
Apr 20
53 °FCool.5 mph94%30.14 "HgN/A
10:00 PM53 °FCool.7 mph94%30.16 "HgN/A
9:00 PM52 °FLight rain. Overcast.9 mph94%30.17 "Hg2 mi
8:00 PM53 °FCool.9 mph93%30.15 "HgN/A
7:00 PM53 °FCool.12 mph93%30.15 "HgN/A
6:00 PM52 °FCool.12 mph91%30.16 "HgN/A
5:00 PM53 °FCool.12 mph83%30.14 "HgN/A
4:00 PM53 °FCool.8 mph84%30.14 "HgN/A
3:00 PM53 °FLight rain. Overcast.8 mph85%30.16 "Hg5 mi
2:00 PM53 °FCool.9 mph85%30.17 "HgN/A
1:00 PM52 °FCool.1 mph89%30.18 "HgN/A
12:00 PM51 °FCool.1 mph88%30.20 "HgN/A
Weather by CustomWeather, © 2014

See weather overview